Location: Newark
(31.5350°N, 35.0986°E)
Time: 09:39:10
(UTC+00:00)

Transit 4A - Pass Details

Date: 20 October 2019
Orbit: 869 x 976 km, 66.8° (Epoch: 18 November)

Event Time Altitude Azimuth Distance (km) Brightness Sun altitude
Rises 02:13:00 0° 213° (SSW) 3,658 - -20.5°
Reaches altitude 10° 02:15:36 10° 217° (SW) 2,711 - -19.9°
Exits shadow 02:17:01 17° 220° (SW) 2,216 9.5 -19.6°
Maximum altitude 02:21:52 61° 297° (WNW) 1,087 8.0 -18.6°
Drops below altitude 10° 02:28:05 10° 18° (NNE) 2,681 10.5 -17.3°
Sets 02:30:39 0° 21° (NNE) 3,615 11.2 -16.7°
